www.pogodaiklimat.ru

Погода и климат >> Архив погоды >> Австрия >> Куфштайн


ПОГОДА в Куфштайне

  • Прогноз погоды в Куфштайне
  • Монитор погоды в Куфштайне

АРХИВ ПОГОДЫ в Куфштайне

Время (UTC), дата Ветер
(напр.,м/с)
 
Видим.   Явления Облачность Т
(С)
Тd
(С)
f
(%)
Тe
(С)
Тes
(С)
Комфортность P
(гПа)
Po
(гПа)
Тmin
(С)
Tmax
(С)
R
(мм)
R24
(мм)
S
(см)
19 8.09 ЮЗ 1 н/о осадки н/о +7.8 +5.9 88 +7 +7 1017.6 959.0 0.2
20 8.09 штиль 0 н/о в посл. час осадки н/о +7.6 +6.5 93 +7 +7 1018.1 959.5 0.3
21 8.09 З 1 н/о ливневой дождь {осадки} н/о +7.8 +6.1 89 +7 +7 1017.8 959.2 0.7
22 8.09 З 3 н/о в посл. час осадки н/о +7.7 +6.2 90 +5 +5 1017.6 959.0 0.1
23 8.09 З 2 н/о в посл. час осадки н/о +7.8 +6.3 90 +6 +6 1017.1 958.6 0.0
00 9.09 З 2 н/о ливневой дождь н/о +7.6 +6.5 93 +5 +5 1016.8 958.2 1
01 9.09 З 2 н/о в посл. час осадки н/о +8.0 +5.9 87 +6 +6 1016.6 958.1 0.2
02 9.09 З 2 н/о осадки н/о +7.8 +6.5 91 +6 +6 1016.1 957.6 0.4
03 9.09 З 1 н/о осадки {ливн. осадки} н/о +7.8 +6.4 91 +7 +7 1016.1 957.6 2
04 9.09 ЮЗ 1 н/о осадки н/о +7.8 +6.5 91 +7 +7 1015.9 957.4 1
05 9.09 З 1 н/о осадки н/о +7.9 +6.6 91 +7 +7 1015.9 957.5 1
06 9.09 З 2 н/о осадки {ливн. осадки} н/о +8.2 +6.7 90 +6 +6 1016.1 957.7 +7.5 +8.2 6
07 9.09 З 1 н/о ливневой дождь н/о +8.4 +7.0 91 +8 +8 1016.5 958.1 0.2
08 9.09 З 1 н/о ливневой дождь н/о +8.7 +7.2 90 +8 +8 1016.7 958.4 0.2
09 9.09 З 1 н/о {ливн. осадки} н/о +9.5 +7.4 87 +9 +9 1016.8 958.6 0.4
10 9.09 З 2 н/о н/о +10.2 +8.2 87 +9 +9 1016.6 958.6 0.0
11 9.09 З 2 н/о н/о +11.3 +8.1 81 +10 +10 1016.4 958.6 0.0
12 9.09 штиль 0 н/о {ливн. осадки} н/о +13.7 +8.0 68 +13 +13 1015.7 958.4 0.4
13 9.09 СВ 1 н/о н/о +14.1 +6.8 61 +15 +15 1015.6 958.4
14 9.09 СВ 3 н/о н/о +14.3 +7.7 64 +13 +13 1015.2 958.1
15 9.09 СВ 3 н/о н/о +14.3 +6.4 59 +14 +14 1015.4 958.2
16 9.09 СВ 4 н/о н/о +14.5 +6.8 60 +13 +13 1015.3 958.2
17 9.09 СВ 2 н/о н/о +13.6 +7.5 67 +13 +13 1015.5 958.2
18 9.09 штиль 0 н/о н/о +11.5 +8.2 80 +11 +11 1016.3 958.6 +8.0 +15.0 0.4
19 9.09 штиль 0 н/о н/о +9.5 +7.5 87 +9 +9 1017.3 959.1
20 9.09 штиль 0 н/о н/о +8.6 +7.3 92 +8 +8 1018.1 959.7
21 9.09 штиль 0 н/о н/о +7.8 +6.8 93 +7 +7 1018.3 959.7
22 9.09 ЮЗ 1 н/о н/о +7.2 +6.4 95 +6 +6 1018.4 959.7
23 9.09 штиль 0 н/о н/о +6.7 +5.9 95 +6 +6 1018.6 959.7
00 10.09 штиль 0 н/о н/о +6.5 +5.7 95 +5 +5 1018.8 959.9
01 10.09 ЮЗ 1 н/о н/о +6.4 +5.6 95 +5 +5 1018.5 959.6
02 10.09 З 1 н/о н/о +6.7 +5.8 94 +6 +6 1018.3 959.5
03 10.09 штиль 0 н/о н/о +6.3 +5.6 95 +5 +5 1018.5 959.6
04 10.09 штиль 0 н/о н/о +6.5 +5.7 95 +5 +5 1018.5 959.6
05 10.09 З 2 н/о н/о +6.5 +5.4 93 +4 +4 1018.6 959.7
06 10.09 З 1 н/о н/о +6.5 +5.5 93 +5 +5 1019.3 960.4 +5.8 +11.8
07 10.09 штиль 0 н/о н/о +7.9 +6.2 89 +7 +7 1019.1 960.5
08 10.09 З 2 н/о н/о +10.9 +7.5 80 +10 +10 1018.5 960.5
09 10.09 З 2 н/о н/о +13.1 +8.1 72 +12 +12 1017.7 960.2
10 10.09 З 1 н/о н/о +15.5 +8.4 63 +16 +16 1016.9 959.9
11 10.09 СВ 2 н/о н/о +16.7 +9.2 61 +17 +17 1016.2 959.5
12 10.09 В 2 н/о н/о +17.6 +9.8 60 +18 +18 1016.0 959.5
13 10.09 СВ 3 н/о н/о +18.3 +10.5 60 +19 +19 1015.3 959.0
14 10.09 СВ 3 н/о н/о +19.1 +11.1 60 +20 +20 1015.1 958.9
15 10.09 СВ 3 н/о н/о +19.4 +10.6 57 +21 +21 комфорт 1015.1 959.0
16 10.09 СВ 2 н/о н/о +19.1 +10.9 59 +21 +21 комфорт 1015.4 959.2
17 10.09 В 2 н/о н/о +17.7 +10.6 63 +18 +18 1016.3 959.8
18 10.09 СВ 2 н/о н/о +16.3 +10.7 69 +16 +16 1017.2 960.4 +6.4 +19.6
19 10.09 СВ 2 н/о н/о +14.8 +10.8 77 +15 +15 1018.5 961.3
20 10.09 СВ 3 н/о н/о +14.4 +11.0 80 +13 +13 1019.2 961.9
21 10.09 СВ 2 н/о н/о +13.8 +10.9 83 +13 +13 1019.8 962.4
22 10.09 З 1 н/о н/о +12.7 +10.6 87 +13 +13 1020.4 962.7
23 10.09 штиль 0 н/о н/о +11.4 +10.1 92 +11 +11 1020.9 962.9
00 11.09 ЮВ 1 н/о н/о +10.9 +9.8 93 +10 +10 1021.3 963.2
01 11.09 З 1 н/о н/о +10.2 +9.3 94 +10 +10 1021.6 963.3
02 11.09 штиль 0 н/о н/о +10.0 +9.1 94 +9 +9 1021.6 963.3
03 11.09 штиль 0 н/о н/о +10.3 +9.1 92 +10 +10 1021.7 963.4
04 11.09 ЮЗ 1 н/о н/о +10.2 +8.7 90 +10 +10 1022.4 964.1
05 11.09 З 1 15 км 8/8 1050 м
[St]
+9.4 +8.6 95 +9 +9 1023.2 964.7 +9.3 +10.2
06 11.09 З 2 н/о н/о +10.3 +9.0 92 +9 +9 1023.8 965.4 +9.3 +16.5
07 11.09 З 1 н/о н/о +11.1 +9.1 87 +11 +11 1024.0 965.8
08 11.09 В 1 н/о н/о +12.4 +9.8 84 +12 +12 1024.3 966.3
09 11.09 С 1 н/о н/о +14.0 +9.6 75 +14 +14 1024.0 966.3
10 11.09 СВ 1 н/о н/о +15.4 +9.8 69 +16 +16 1023.6 966.2
11 11.09 СВ 1 н/о н/о +16.5 +10.7 69 +17 +17 1023.4 966.3
12 11.09 СВ 1 н/о н/о +18.1 +10.5 61 +19 +19 1023.1 966.3
13 11.09 СВ 3 н/о н/о +19.7 +12.0 61 +21 +21 комфорт 1022.1 965.7
14 11.09 СВ 2 н/о н/о +20.4 +12.3 60 +23 +23 комфорт 1021.6 965.3
15 11.09 СВ 3 н/о н/о +20.5 +12.3 59 +23 +23 комфорт 1021.5 965.3
16 11.09 СВ 3 н/о н/о +20.0 +12.3 61 +22 +22 комфорт 1022.1 965.7
17 11.09 СВ 3 н/о н/о +19.1 +12.0 63 +20 +20 1023.3 966.7
18 11.09 ЮВ 1 н/о осадки н/о +17.0 +13.8 81 +18 +18 1024.7 967.7 +10.2 +20.6 0.8
19 11.09 З 1 н/о в посл. час осадки н/о +15.3 +13.9 91 +16 +16 1026.5 969.0 0.7
20 11.09 Ю 1 н/о н/о +14.5 +13.5 94 +15 +15 1027.2 969.5
21 11.09 Ю 1 н/о {осадки} н/о +13.5 +12.3 92 +14 +14 1028.1 970.2 0.7
22 11.09 штиль 0 н/о в посл. час осадки н/о +13.5 +12.3 92 +13 +13 1028.8 970.8 0.1
23 11.09 штиль 0 н/о в посл. час осадки н/о +13.3 +12.4 94 +13 +13 1029.0 971.0 2
00 12.09 штиль 0 н/о {ливн. осадки} н/о +12.9 +12.1 95 +12 +12 1029.3 971.2 3
01 12.09 Ю 1 н/о в посл. час осадки н/о +12.2 +11.5 95 +12 +12 1029.9 971.6 0.1
02 12.09 ЮЗ 1 н/о н/о +12.2 +11.6 96 +12 +12 1030.5 972.2
03 12.09 штиль 0 н/о {осадки} н/о +12.2 +11.6 96 +12 +12 1030.7 972.3 0.1
04 12.09 штиль 0 н/о осадки н/о +12.2 +11.5 95 +12 +12 1030.9 972.5 0.1
05 12.09 штиль 0 3000 м 10/10 1500 м
[St As trans]
+12.3 +11.5 95 +12 +12 1031.6 973.2 +12.1 +12.3
06 12.09 З 1 н/о {ливн. осадки} н/о +12.5 +11.7 95 +12 +12 1031.9 973.5 +12.0 +17.7 3
07 12.09 З 2 н/о н/о +13.0 +11.8 92 +12 +12 1032.1 973.8
08 12.09 З 1 н/о н/о +14.6 +12.2 86 +15 +15 1032.2 974.2
09 12.09 З 2 н/о н/о +16.1 +12.2 78 +16 +16 1032.0 974.3
10 12.09 З 2 н/о н/о +17.7 +12.5 72 +18 +18 1031.8 974.5
11 12.09 З 2 н/о н/о +18.7 +11.8 64 +20 +20 1031.3 974.2
12 12.09 СВ 1 н/о н/о +20.5 +12.7 61 +24 +24 комфорт 1030.5 973.8 0.0
13 12.09 С 1 н/о н/о +22.0 +11.7 52 +24 +24 комфорт 1029.7 973.3
14 12.09 В 2 н/о н/о +22.4 +12.5 53 +25 +25 комфорт 1028.9 972.6
15 12.09 СВ 3 н/о н/о +22.7 +11.6 49 +25 +25 комфорт 1028.6 972.4
16 12.09 СВ 3 н/о н/о +22.1 +11.3 50 +24 +24 комфорт 1028.7 972.3
17 12.09 СВ 1 н/о н/о +20.1 +12.5 62 +23 +23 комфорт 1029.3 972.6
18 12.09 СВ 2 н/о н/о +18.2 +12.5 69 +19 +19 1030.2 973.1 +12.5 +22.9 0.0
20 12.09 штиль 0 н/о н/о +14.8 +12.2 84 +15 +15 1032.2 974.3
21 12.09 ЮЗ 1 н/о н/о +13.7 +11.9 89 +14 +14 1032.7 974.5
22 12.09 штиль 0 н/о н/о +13.0 +11.9 93 +12 +12 1033.1 974.8
23 12.09 ЮЗ 1 н/о н/о +12.4 +11.2 92 +12 +12 1033.4 974.9
00 13.09 штиль 0 н/о н/о +12.0 +11.1 94 +11 +11 1033.5 974.9
01 13.09 штиль 0 н/о н/о +11.5 +10.6 94 +11 +11 1033.5 974.8
02 13.09 ЮЗ 1 н/о н/о +11.0 +10.1 94 +11 +11 1033.7 974.9
03 13.09 штиль 0 н/о н/о +10.7 +9.9 95 +10 +10 1033.8 974.9
04 13.09 штиль 0 н/о н/о +10.4 +9.6 95 +10 +10 1034.1 975.2
05 13.09 З 1 н/о н/о +10.1 +9.4 95 +10 +10 1034.5 975.5
06 13.09 З 1 н/о н/о +10.8 +9.9 94 +10 +10 1034.4 975.5 +10.1 +18.5
07 13.09 ЮЗ 1 н/о н/о +12.8 +11.0 89 +13 +13 1033.9 975.5
08 13.09 ЮЗ 2 н/о н/о +15.5 +11.6 78 +15 +15 1033.0 975.2
09 13.09 З 3 н/о н/о +18.1 +11.7 66 +18 +18 1032.1 974.8
10 13.09 ЮЗ 1 н/о н/о +20.3 +12.8 62 +23 +23 комфорт 1031.0 974.2
11 13.09 С 1 н/о н/о +21.7 +12.6 56 +24 +24 комфорт 1030.0 973.5
12 13.09 В 2 н/о н/о +22.6 +13.8 58 +26 +26 жарко 1029.4 973.1 0.0
13 13.09 СВ 3 н/о н/о +24.3 +13.8 52 +27 +27 жарко 1028.5 972.6
14 13.09 СВ 3 н/о н/о +24.5 +14.0 52 +27 +27 жарко 1028.3 972.5
15 13.09 СВ 3 н/о н/о +24.4 +13.6 51 +27 +27 жарко 1028.1 972.2
16 13.09 СВ 3 н/о н/о +23.9 +13.3 51 +26 +26 жарко 1028.2 972.2
17 13.09 СВ 2 н/о н/о +22.1 +13.9 60 +25 +25 комфорт 1028.5 972.2
18 13.09 В 2 н/о н/о +20.4 +14.1 67 +23 +23 комфорт 1029.2 972.6 +10.7 +24.6 0.0
19 13.09 СВ 2 н/о н/о +18.6 +13.9 74 +20 +20 1030.1 973.1
20 13.09 В 1 н/о н/о +17.2 +13.6 79 +18 +18 1030.7 973.4
21 13.09 штиль 0 н/о н/о +16.0 +13.6 86 +16 +16 1031.4 973.8
22 13.09 штиль 0 н/о н/о +14.8 +13.1 90 +14 +14 1031.7 973.8
23 13.09 З 1 н/о н/о +14.1 +12.8 92 +14 +14 1031.8 973.8
00 14.09 штиль 0 н/о н/о +13.6 +12.4 92 +13 +13 1031.9 973.8
01 14.09 З 1 н/о н/о +12.9 +11.9 94 +13 +13 1031.8 973.5
02 14.09 ЮЗ 1 н/о н/о +12.5 +11.6 94 +12 +12 1031.9 973.5
03 14.09 З 1 н/о н/о +12.0 +11.2 95 +12 +12 1032.0 973.5
04 14.09 З 1 н/о н/о +12.1 +11.3 95 +12 +12 1031.8 973.4
05 14.09 Ю 1 н/о н/о +11.8 +11.0 95 +12 +12 1032.0 973.5
06 14.09 штиль 0 н/о н/о +11.8 +11.0 95 +11 +11 1032.0 973.5 +11.6 +20.6
07 14.09 Ю 1 н/о н/о +13.2 +11.7 91 +13 +13 1031.9 973.7
08 14.09 В 1 н/о н/о +15.2 +12.7 85 +16 +16 1031.3 973.5
09 14.09 З 2 н/о н/о +18.4 +13.2 72 +19 +19 1030.1 973.0
10 14.09 штиль 0 н/о н/о +20.5 +13.8 65 +23 +23 комфорт 1028.9 972.3
11 14.09 В 1 н/о н/о +21.7 +13.0 58 +24 +24 комфорт 1027.7 971.4
12 14.09 В 2 н/о н/о +22.7 +14.3 59 +26 +26 жарко 1026.4 970.3
13 14.09 СВ 4 н/о н/о +23.6 +15.2 59 +26 +26 жарко 1025.7 969.9
14 14.09 СВ 4 н/о н/о +23.5 +14.4 57 +26 +26 жарко 1025.8 969.9
15 14.09 СВ 3 н/о н/о +23.3 +14.2 57 +27 +27 душно 1025.6 969.7
16 14.09 СВ 3 н/о н/о +22.8 +14.6 60 +26 +26 жарко 1025.8 969.8
17 14.09 СВ 3 н/о н/о +21.2 +14.2 64 +24 +24 комфорт 1026.3 970.0
18 14.09 СВ 2 н/о н/о +19.3 +14.9 76 +21 +21 комфорт 1027.0 970.3 +11.8 +24.1
19 14.09 СВ 2 н/о н/о +18.3 +14.7 80 +19 +19 1027.3 970.4
20 14.09 В 1 н/о н/о +17.2 +14.3 83 +18 +18 1027.7 970.5
21 14.09 СВ 1 н/о н/о +16.4 +14.2 87 +17 +17 1028.1 970.8
22 14.09 СВ 1 н/о н/о +15.2 +13.7 91 +16 +16 1028.4 970.8
23 14.09 ЮЗ 1 н/о н/о +14.5 +13.5 94 +15 +15 1028.1 970.4
00 15.09 штиль 0 н/о н/о +14.0 +13.0 94 +14 +14 1028.1 970.3
01 15.09 штиль 0 н/о н/о +13.4 +12.6 95 +13 +13 1027.8 969.9
02 15.09 штиль 0 н/о н/о +13.3 +12.4 94 +13 +13 1027.5 969.6
03 15.09 штиль 0 н/о н/о +13.0 +12.3 96 +12 +12 1027.3 969.3
04 15.09 З 2 н/о н/о +13.2 +12.1 93 +12 +12 1026.9 969.0
05 15.09 ЮЗ 1 н/о н/о +13.2 +12.2 94 +13 +13 1026.8 968.9
06 15.09 штиль 0 н/о н/о +13.0 +12.0 94 +12 +12 1027.2 969.2 +12.9 +19.7
07 15.09 Ю 1 н/о н/о +14.4 +12.9 91 +15 +15 1027.0 969.3
08 15.09 ЮЗ 1 н/о н/о +17.5 +13.7 78 +19 +19 1025.8 968.8
09 15.09 ЮЗ 1 н/о н/о +20.1 +14.1 68 +23 +23 комфорт 1024.6 968.2
10 15.09 Ю 1 н/о н/о +22.2 +15.1 64 +26 +26 душно 1023.6 967.6
11 15.09 З 2 н/о н/о +22.9 +14.2 58 +26 +26 жарко 1022.7 966.9
12 15.09 В 2 н/о н/о +24.1 +15.0 57 +27 +27 жарко 1021.8 966.3
13 15.09 В 3 н/о н/о +25.2 +16.1 57 +29 +29 душно 1020.8 965.5
14 15.09 СВ 3 н/о н/о +25.9 +16.8 57 +30 +30 душно 1020.0 964.9
15 15.09 СВ 2 н/о н/о +26.0 +16.6 56 +30 +30 душно 1019.6 964.6
16 15.09 СВ 2 н/о н/о +25.5 +16.2 56 +29 +29 душно 1019.4 964.3
17 15.09 СВ 2 н/о н/о +23.7 +15.6 60 +27 +27 жарко 1019.8 964.3
18 15.09 СВ 1 н/о н/о +21.5 +15.5 69 +25 +25 комфорт 1020.5 964.6 +12.9 +26.2
19 15.09 СВ 1 н/о н/о +19.7 +15.3 76 +23 +23 комфорт 1021.2 964.9

 

Местоположение метеостанции Куфштайн (Австрия): широта 47.58 долгота 12.17 высота над уровнем моря 493 м.

В архиве по умолчанию представлена погода в Куфштайне за последнюю неделю. Архивные данные за месяц целиком и за предыдущие месяцы, начиная с января 2011 года, Вы можете получить, выбрав интересующий диапазон дат из раскрывающегося списка и нажав кнопку "Ввод!".


*Определитесь, кто Вы:
робот инопланетянин человек

Внимание! Время в таблицах - всемирное. Для получения местного времени необходимо прибавить поправку, которая равна 1 ч.

Смотрите также архив погоды в соседних городах и на ближайших метеорологических станциях:

Погода в Ахенкирьхе (Австрия) (36 км)
Погода в Ахенкирьхе (Австрия) (36 км)
Погода в Лоферер Альме (Австрия) (36 км)
Погода в Енбахе (Австрия) (39 км)
Погода в Кримле (Австрия) (39 км)
Погода в Лофере (Австрия) (40 км)
Погода в Зальбах-Хинтерглемме (Австрия) (42 км)
Погода в Киминге (Германия) (43 км)
Погода на Шмиттенхёэ (Австрия) (50 км)
Погода в Майрхофене (Австрия) (52 км)

Пояснения к столбцам:

Ветер - указаны скорость ветра в м/с - средняя за 10 мин, порывы в срок и между сроками (в фигурных скобках) и направление, откуда дует ветер: С - северный, СВ - северо-восточный, В - восточный, ЮВ - юго-восточный, Ю - южный, ЮЗ - юго-западный, З - западный, СЗ - северо-западный.
Видимость - горизонтальная дальность видимости в метрах или километрах. При видимости от 1 до 10 км при отсутствии осадков обычно наблюдается дымка, при ухудшении видимости до 1 км и менее - туман. В сухую погоду видимость может ухудшаться дымом, пылью или мглою.
Явления - указаны атмосферные явления, наблюдавшиеся в срок или в последний час перед сроком; фигурными скобками обозначены явления, наблюдавшиеся между сроками (за 1-3 часа до срока); квадратными скобками обозначены град или гололедные отложения с указанием их диаметра в мм.
Облачность - указаны через наклонную черту общая и нижняя облачность в баллах и высота нижней границы облаков в метрах; квадратными скобками обозначены формы облаков: Ci - перистые, Cs - перисто-слоистые, Cc - перисто-кучевые, Ac - высококучевые, As - высокослоистые, Sc - слоисто-кучевые, Ns - слоисто-дождевые, Cu - кучевые, Cb - кучево-дождевые. Подробнее классификацию облаков см. в Атласе облаков (PDF).
T - Температура воздуха - температура, измеренная на высоте 2 м над землей.
Td - Температура точки росы - температура, при понижении до которой содержащийся в воздухе водяной пар достигнет насыщения.
f - Относительная влажность воздуха - влажноcть воздуха, измеренная на высоте 2 м над землей.
Te - Эффективная температура - температура, которую ощущает одетый по сезону человек в тени. Характеристика душности погоды. При расчете учитывается влияние влажности воздуха и скорости ветра на теплоощущения человека.
Tes - Эффективная температура на солнце - температура, которую ощущает человек, с поправкой на солнечный нагрев. Характеристика знойности погоды. Зависит от высоты солнца над горизонтом, облачности и скорости ветра. Ночью, в пасмурную погоду, а также при ветре 12 м/с и более поправка равна нулю.
P - Атмосферное давление - приведенное к уровню моря атмосферное давление.
Po - Атмосферное давление - измеренное на уровне метеостанции атмосферное давление.
Tmin - Минимальная температура - минимум температуры воздуха на высоте 2 м над землей.
Tmax - Максимальная температура - максимум температуры воздуха на высоте 2 м над землей.
R - Количество осадков - Количество выпавших осадков за период времени, мм. При наведении курсора мыши на число - период времени, за который выпало указанное количество осадков.
R24 - Количество осадков - Количество выпавших осадков за 24 часа, мм.
S - Снежный покров - Высота снежного покрова, см. При наведении курсора мыши на число - состояние снежного покрова и степень покрытия местности в баллах.